Lid_Strength_Index
15 15 14 13 13 13 13 13 14 16 15 18 17 16 14 14 13 13 13 11 9 8 8 8 9 9 8 8 7 7 7 8 8 8 8 8 8 8
15 15 15 14 14 14 14 13 13 14 16 16 17 16 15 14 14 14 13 13 10 9 9 9 9 9 8 8 8 7 7 7 8 8 8 8 9 8
15 16 15 14 14 15 15 14 14 13 15 14 17 17 17 16 16 14 14 15 13 10 9 9 9 9 9 9 8 8 8 8 8 8 9 9 9 9
16 15 15 14 15 14 14 14 15 14 14 15 14 18 17 16 15 15 15 15 15 13 10 10 10 10 10 9 9 9 9 9 8 9 9 9 9 9
15 15 15 15 15 14 14 14 14 13 15 15 15 17 18 17 17 17 16 17 16 14 11 10 10 10 10 10 9 9 9 9 9 10 10 10 10 10
15 15 14 14 15 15 14 13 13 13 13 14 15 15 18 17 16 17 18 17 17 16 14 12 11 10 10 10 10 10 10 9 10 10 11 11 11 10
13 14 14 14 13 13 14 14 14 13 13 13 14 15 18 18 17 16 16 16 16 16 17 16 14 13 12 10 11 10 9 10 10 11 11 12 11 11
14 13 13 13 13 11 11 10 10 13 14 13 13 13 13 15 14 14 16 17 18 16 17 17 16 15 14 13 11 10 9 9 10 11 11 12 12 12
15 15 14 13 13 13 11 10 10 9 9 11 13 13 13 12 13 14 15 14 15 16 16 17 16 17 15 14 11 9 9 9 10 11 11 12 12 12
14 15 15 15 14 13 12 12 12 12 11 11 10 10 10 10 11 12 12 14 13 16 15 17 16 18 16 15 12 10 9 9 10 11 11 12 12 12
15 15 15 16 14 12 14 14 14 12 10 8 8 8 7 7 7 10 13 14 15 14 16 16 17 17 17 16 15 11 10 9 9 10 11 11 11 12
16 15 14 14 13 12 13 14 15 14 12 11 11 10 8 8 7 8 11 13 13 14 15 16 16 17 18 16 16 15 12 10 10 10 11 11 11 13
17 17 16 14 13 13 12 13 13 12 11 10 10 11 11 11 10 9 8 11 12 13 14 14 14 16 17 19 17 16 14 13 12 12 11 11 11 12
17 16 17 14 14 13 13 13 12 11 11 11 10 11 11 11 10 9 9 9 9 10 10 12 15 15 17 19 19 17 15 14 13 13 13 12 11 11
15 14 12 12 12 13 13 13 14 15 14 13 11 10 10 9 9 9 8 8 9 9 10 11 12 14 15 16 19 18 17 15 14 14 14 14 14 14
13 14 14 13 12 13 14 14 14 15 15 14 11 9 8 9 9 8 9 9 9 10 10 11 11 11 15 15 16 19 17 18 15 15 15 15 15 15
11 12 13 16 18 18 18 16 15 15 16 13 11 10 9 9 9 9 9 9 10 11 13 13 11 11 12 14 17 17 17 17 17 16 17 18 18 17
12 13 13 14 14 15 16 17 16 15 15 12 11 11 11 10 9 10 9 10 11 11 12 15 13 15 17 17 14 16 17 17 18 17 18 19 20 18
15 15 15 14 14 14 15 16 16 15 13 13 12 12 11 9 9 9 10 10 12 11 13 14 14 14 17 19 18 13 16 17 18 18 18 19 20 19
19 18 17 16 15 15 15 15 15 14 14 13 12 12 10 8 9 9 10 11 12 12 14 15 14 13 14 16 19 17 13 17 18 19 19 19 18 17
20 19 18 18 17 17 14 15 16 16 15 15 13 11 10 8 9 9 9 10 11 12 15 16 14 12 12 15 18 18 16 14 16 18 19 21 22 22
21 21 19 18 16 14 13 13 14 14 15 14 12 10 9 9 9 9 10 11 11 12 14 14 14 15 15 15 17 18 17 16 15 15 16 19 21 24
22 21 20 19 17 16 15 13 11 12 12 11 10 9 10 10 9 9 10 10 11 13 14 15 15 15 15 15 17 18 18 19 19 20 20 18 18 18